Temperature
13 14 14 15 13 11 13 14 15 16 16 18 18 18 17 17 17 17 16 17 17 17 16 16 16 16 16 16 16 16 16 16 16 16 16 16 16 16 15 15 15 15 15 15 15 15 15 15 15
13 14 14 14 11 12 13 13 15 16 17 18 18 17 16 16 16 16 16 16 16 17 16 16 16 16 16 16 16 16 16 16 16 16 16 16 15 15 15 15 15 15 15 15 15 15 15 15 15
13 13 14 10 11 12 13 14 14 16 17 17 17 16 16 16 16 16 16 16 16 16 16 16 16 16 16 16 16 16 16 16 15 15 15 15 15 15 15 15 15 15 15 15 15 15 15 15 15
13 13 13 10 11 12 13 14 14 15 16 16 16 15 15 15 15 16 16 15 16 16 16 16 16 16 16 16 16 16 16 15 15 15 15 15 15 15 15 15 15 15 15 15 15 15 15 15 15
12 12 10 10 11 12 12 14 15 14 15 15 15 14 15 15 15 15 15 15 15 16 15 15 16 15 15 15 15 15 15 15 15 15 15 15 15 15 15 15 15 15 15 15 15 15 15 15 15
12 10 9 10 11 12 12 14 14 14 14 14 14 13 14 15 15 15 15 15 15 15 15 15 15 15 15 15 15 15 15 15 15 15 15 15 15 15 15 15 15 15 15 15 15 15 15 14 14
11 9 9 10 11 12 13 14 14 13 13 14 14 13 13 14 15 15 14 14 15 15 15 15 15 15 15 15 15 15 15 15 15 15 15 15 15 15 15 15 15 14 14 14 14 14 14 14 14
11 8 10 10 11 11 13 13 14 13 13 14 14 13 13 13 14 14 14 14 14 14 14 14 14 14 14 14 14 14 14 15 15 14 14 14 14 14 14 14 14 14 14 14 14 14 14 14 14
11 8 9 10 11 11 12 12 13 13 13 13 13 14 14 13 13 13 13 13 14 14 14 14 14 14 14 14 14 14 14 14 14 14 14 14 14 14 14 14 14 14 14 14 14 14 14 14 13
10 8 10 11 11 11 12 12 12 12 12 12 13 13 13 13 13 13 13 13 13 13 13 13 13 13 14 14 14 14 14 14 14 14 14 14 14 14 14 14 14 14 14 14 14 14 14 13 13
9 9 10 11 11 12 11 11 12 11 11 12 12 12 13 12 12 13 13 13 13 13 13 13 13 13 13 14 14 14 14 14 14 14 14 14 14 14 14 14 14 14 14 14 14 13 13 13 13
9 10 11 11 11 11 11 11 11 11 12 13 13 13 12 12 12 12 12 12 12 12 12 12 13 13 13 13 13 13 13 13 13 13 14 14 14 13 13 13 13 13 13 13 13 13 13 13 13
9 10 11 11 11 11 11 11 11 11 12 13 12 12 12 12 12 12 12 12 12 12 12 12 12 13 13 13 13 13 13 13 13 13 13 13 13 13 13 13 13 13 13 13 13 13 13 13 13
9 10 10 10 11 11 10 10 10 11 12 12 12 12 12 12 12 12 12 12 12 12 12 12 12 12 13 13 13 13 13 13 13 13 13 13 13 13 13 13 13 13 13 13 13 13 13 13 13
10 9 9 10 10 10 10 10 10 11 11 11 11 11 11 11 11 11 12 12 12 12 12 12 12 12 12 12 12 12 13 13 13 13 13 13 13 13 13 13 13 13 13 13 13 13 13 13 12
9 8 8 9 10 10 10 9 10 11 11 11 11 11 11 11 11 11 11 11 12 12 12 12 12 12 12 12 12 12 12 12 12 12 13 12 12 12 12 12 12 12 12 12 12 12 12 12 12
8 8 8 9 10 10 9 9 10 11 11 10 10 10 10 10 11 11 11 11 11 12 12 12 12 12 12 12 12 12 12 12 12 12 12 12 12 12 12 12 12 12 12 12 12 12 12 12 12
8 8 8 8 9 9 9 9 9 10 10 10 10 10 10 10 11 11 11 11 11 11 11 11 11 11 11 11 11 11 11 11 12 12 12 12 12 12 12 12 12 12 12 12 12 12 12 11 11
8 8 8 9 10 9 8 9 9 10 10 9 9 10 10 10 10 10 11 11 11 11 11 11 11 11 11 11 11 11 11 11 11 11 12 11 12 11 11 11 11 11 11 11 11 11 11 11 11
9 8 8 9 9 9 8 9 9 9 9 9 9 9 10 10 10 10 10 10 11 11 11 11 11 11 11 11 11 11 11 11 11 11 11 11 11 11 11 11 11 11 11 11 11 11 11 10 10
9 8 8 9 9 9 9 8 9 9 9 9 10 10 10 10 10 10 10 11 11 11 10 10 10 10 10 10 10 10 10 10 10 11 11 11 11 10 10 10 10 10 10 10 10 10 10 10 9
8 9 9 9 8 7 8 7 8 9 9 9 9 9 9 10 10 10 10 11 11 11 10 10 10 10 10 10 10 10 10 10 10 10 10 10 10 10 10 10 10 10 10 10 10 10 10 9 9
8 9 9 9 8 8 7 7 8 8 8 9 8 9 10 10 10 10 11 11 11 10 10 10 10 10 10 10 10 10 10 10 10 10 10 10 10 10 10 9 9 9 9 9 9 9 9 9 9
9 8 8 7 7 8 8 7 8 7 8 9 9 9 10 10 10 10 10 11 10 10 10 10 10 10 10 10 9 9 9 9 9 9 9 9 9 9 9 9 9 9 9 9 9 9 9 8 8
8 7 7 7 7 7 7 7 7 8 9 9 9 9 10 10 10 10 10 10 10 10 10 10 10 9 9 9 9 9 9 9 9 9 9 9 9 9 9 9 9 8 8 8 8 8 8 8 8
8 8 7 8 7 7 7 7 8 9 9 9 10 10 10 10 10 10 10 10 10 10 10 10 10 9 9 9 9 9 8 8 8 8 8 8 8 8 8 8 8 8 8 8 8 8 8 7 7
8 7 7 6 6 6 7 7 8 9 8 8 9 9 9 10 10 10 10 10 10 10 10 10 9 9 9 9 8 8 8 8 8 8 8 8 8 8 8 8 8 8 8 8 7 7 7 7 7
8 7 6 6 7 7 7 7 7 8 8 8 8 8 9 9 9 10 10 10 10 10 10 9 9 9 9 8 8 8 8 8 8 8 8 8 8 8 8 8 8 7 7 7 7 7 7 6 6
8 7 7 5 6 7 7 7 8 8 8 7 7 8 9 9 9 9 9 9 9 9 9 9 9 9 8 8 8 8 8 8 8 8 8 7 7 7 7 7 7 7 7 7 7 6 6 6 6
8 7 6 7 6 5 5 7 8 7 7 7 8 9 9 9 9 9 9 9 9 9 9 8 8 8 8 8 8 8 8 7 7 7 7 7 7 7 7 7 7 6 6 6 6 6 6 5 5
Wind_Speed
11 10 3 4 4 1 4 4 2 1 2 3 2 1 3 3 3 3 2 7 9 10 12 13 13 13 13 13 12 11 11 10 10 10 9 9 9 9 8 8 8 8 7 7 7 6 6 6 6
7 3 4 4 4 4 4 4 5 5 4 1 2 2 2 1 1 5 3 6 10 10 12 12 12 13 13 13 12 12 11 10 9 9 9 8 8 8 8 7 7 7 7 6 6 6 6 5 5
5 2 3 3 3 7 5 4 7 5 3 2 2 3 1 2 3 3 4 9 9 8 9 11 12 13 12 12 13 12 11 10 9 9 8 8 8 8 7 7 7 7 6 6 6 5 5 5 4
3 4 3 2 5 5 5 4 3 2 3 3 2 2 1 0 2 4 8 10 10 7 8 10 12 12 11 11 12 12 11 10 9 9 8 8 8 8 7 6 6 6 6 5 5 4 4 4 4
3 3 2 2 5 4 3 3 1 1 2 1 2 0 1 3 3 8 10 10 10 7 7 9 11 11 10 10 11 12 11 10 9 8 8 7 7 7 7 6 6 5 5 4 4 3 3 3 3
3 3 3 5 6 4 3 4 2 3 2 1 1 0 2 0 5 7 9 8 9 8 8 9 10 10 9 9 9 11 11 10 9 8 7 7 7 7 6 6 6 5 4 4 3 3 2 2 2
3 3 3 4 4 4 4 3 3 3 4 2 2 1 1 1 3 6 8 8 8 8 7 7 8 8 9 8 8 9 11 10 9 8 8 7 7 6 6 5 5 4 4 3 3 2 2 1 1
3 2 2 3 4 5 3 2 2 3 5 1 2 3 4 3 3 6 7 7 7 6 5 5 6 6 6 7 7 7 9 10 9 8 8 7 6 6 5 5 4 4 3 3 2 2 1 1 2
3 1 3 4 4 4 2 2 3 3 1 1 1 2 3 2 4 7 7 6 6 6 5 5 5 5 5 6 7 7 8 8 8 7 7 6 5 5 4 4 4 3 2 2 2 2 2 2 3
3 3 6 3 3 3 3 2 3 2 1 1 1 1 1 3 5 8 9 8 7 6 5 4 4 4 5 5 6 6 5 6 6 5 6 5 4 4 3 3 3 3 3 2 2 2 2 3 3
3 5 4 4 4 3 3 3 2 2 3 4 4 3 3 3 5 8 8 8 7 7 5 4 4 4 4 3 5 5 5 5 5 5 5 5 5 4 4 3 3 3 3 3 3 3 4 3 2
2 5 4 4 4 3 3 3 3 4 6 5 5 6 5 5 5 6 6 6 6 5 5 5 4 3 4 4 4 4 4 4 4 5 5 6 4 4 3 3 3 3 3 3 3 3 4 4 3
3 4 5 5 5 4 3 4 3 5 5 2 4 5 6 5 4 4 5 6 5 5 5 5 4 4 4 4 3 4 4 4 5 5 5 6 4 2 3 2 3 3 3 3 3 3 3 3 3
3 3 5 5 4 3 3 5 3 7 3 3 4 5 5 5 4 5 6 5 5 6 5 5 5 4 4 3 2 3 4 5 6 5 5 6 5 4 3 2 2 3 3 3 2 2 2 2 3
1 3 5 4 4 2 1 4 6 7 3 4 5 5 5 4 3 5 6 6 5 5 5 5 5 5 5 4 3 4 5 6 5 5 5 6 5 5 4 2 2 2 3 3 3 3 3 2 2
1 1 2 4 2 2 3 6 7 4 4 5 5 5 5 4 4 4 4 4 5 5 5 4 4 5 4 4 4 4 5 6 5 5 5 6 6 6 5 2 1 2 3 3 2 2 2 2 2
2 1 3 4 2 2 3 6 6 2 5 5 5 5 5 4 3 4 4 4 5 5 5 5 4 5 4 4 4 5 5 5 5 5 5 5 6 6 5 3 2 3 3 2 1 2 1 1 2
3 3 3 4 3 1 4 6 6 2 4 5 4 5 5 5 5 4 5 5 5 4 4 4 5 5 4 3 3 3 3 3 4 4 4 5 5 6 5 3 3 3 2 2 2 2 2 1 1
3 3 6 6 4 1 4 7 6 3 2 3 3 4 5 6 4 4 4 5 5 4 4 4 4 4 4 3 2 2 1 1 1 2 4 4 5 5 5 3 2 2 2 2 2 1 2 2 2
3 4 5 5 2 2 3 6 5 4 5 5 6 6 6 5 3 3 4 5 5 5 4 4 4 4 4 3 2 1 1 0 1 1 2 3 4 4 3 3 2 2 2 2 2 2 1 1 2
3 4 5 4 2 1 1 5 4 3 3 3 4 6 6 7 7 6 5 5 5 4 4 4 4 4 4 3 3 3 3 2 1 1 1 1 2 3 3 3 2 2 2 1 1 2 2 1 1
5 4 4 3 1 3 1 3 5 3 3 4 4 5 6 6 6 6 6 5 6 5 4 4 4 4 4 4 4 4 2 1 2 1 1 0 1 2 2 3 2 2 1 1 1 1 1 2 1
5 4 3 3 2 1 1 1 6 1 4 6 7 6 6 6 6 7 7 7 6 5 5 4 4 4 3 3 4 4 2 1 1 1 1 1 1 1 2 2 2 1 1 1 1 1 1 1 2
3 3 2 3 3 1 3 4 6 4 7 7 7 7 7 6 6 6 5 5 4 4 4 4 4 4 3 3 3 4 4 3 2 1 1 1 1 1 1 2 2 2 2 2 2 2 2 2 2
4 4 4 5 3 4 2 3 8 7 6 8 9 9 8 6 6 6 6 5 5 5 6 5 5 4 4 4 3 4 4 4 4 3 2 2 1 1 2 2 2 2 3 3 3 2 2 2 2
0 4 4 3 4 5 3 5 7 5 3 3 5 6 6 5 6 7 7 7 6 6 6 6 6 5 4 4 4 3 3 3 3 3 3 3 3 3 3 3 3 3 3 3 3 2 2 2 3
2 2 4 4 1 3 5 6 7 1 1 1 3 5 6 6 5 6 6 6 6 6 6 6 6 5 5 4 4 3 3 3 3 3 3 2 3 2 2 3 3 3 3 3 3 2 2 3 3
3 4 4 3 1 3 6 5 5 5 4 4 5 5 5 5 4 5 5 6 6 6 5 5 5 6 5 4 4 3 3 3 3 3 3 3 3 2 2 2 3 3 3 3 3 3 3 3 3
2 2 3 3 4 3 4 7 6 6 6 6 6 6 7 6 5 5 5 5 4 4 4 4 4 4 4 4 4 3 3 3 3 3 3 3 3 3 3 3 3 3 3 3 3 3 3 4 4
5 5 6 3 4 4 3 7 5 4 4 5 6 5 5 5 5 4 4 3 3 3 3 4 4 4 4 4 4 4 3 2 3 3 3 3 3 3 3 3 3 3 3 3 4 4 4 4 4
Wind_Direction
330 334 30 57 72 92 226 236 239 212 238 254 256 123 139 161 165 175 142 133 131 145 147 150 148 146 143 138 134 131 127 124 122 118 115 114 112 111 109 107 109 108 106 105 102 98 93 88 84
332 353 52 69 132 200 242 225 223 237 227 264 4 51 80 70 73 108 113 139 135 139 142 147 150 147 145 141 138 134 130 127 126 123 120 118 117 112 109 106 108 109 107 106 101 97 92 87 82
336 44 89 100 170 202 210 219 217 240 279 329 7 21 88 146 112 133 154 143 131 129 136 144 145 146 145 145 142 138 134 132 128 126 122 119 114 111 109 107 106 110 107 102 96 93 88 84 80
45 47 65 120 216 224 203 229 216 235 322 351 53 6 352 348 154 152 143 136 128 124 127 140 141 141 142 144 145 142 139 136 130 125 123 121 117 112 111 110 109 110 110 106 100 98 94 86 77
59 87 102 218 233 239 238 259 278 258 267 335 39 305 290 329 99 124 130 130 128 123 123 135 135 137 138 141 148 146 143 138 134 130 126 126 122 117 112 115 113 111 111 110 107 103 100 90 75
59 85 143 220 237 245 259 264 261 274 267 298 42 288 227 296 110 122 126 128 128 127 121 127 129 127 132 139 148 150 144 139 136 133 128 126 127 124 118 118 118 118 116 116 114 110 105 93 62
112 126 190 213 237 250 251 255 221 247 267 248 159 156 242 258 134 129 125 123 120 119 117 114 118 127 128 128 135 150 146 141 135 131 125 122 126 127 120 118 121 124 122 115 111 105 96 63 30
130 124 205 215 219 242 253 279 253 231 248 241 137 168 213 228 156 127 119 115 116 117 116 113 114 113 117 125 128 130 141 139 135 131 125 122 123 128 124 119 121 120 116 109 100 87 57 21 6
99 114 221 216 214 239 265 293 291 283 211 290 227 198 222 195 141 126 120 117 118 120 124 118 108 107 108 121 127 123 132 136 131 128 125 123 125 128 128 121 118 111 101 91 76 51 39 23 9
119 195 228 232 229 243 280 281 278 323 296 277 331 343 100 132 152 147 146 146 142 137 139 135 122 119 116 127 128 124 123 128 129 124 124 123 127 132 130 122 110 95 76 59 50 32 24 26 20
173 214 240 267 266 266 289 290 287 209 250 223 216 203 153 150 160 160 158 156 155 150 144 141 139 133 123 118 130 122 114 113 110 109 117 114 109 104 100 93 77 70 60 41 29 37 28 33 39
215 250 248 267 274 279 268 275 286 242 238 224 200 185 169 163 168 168 157 153 145 144 145 146 140 129 120 120 124 125 120 113 103 109 115 108 98 89 90 89 82 68 56 42 36 32 28 35 39
233 260 269 261 264 258 276 272 259 267 260 206 162 167 173 171 170 176 154 142 143 146 146 147 141 136 123 112 117 121 122 118 114 109 109 111 108 105 98 92 81 63 57 53 41 37 37 37 34
241 269 291 289 268 263 246 276 256 259 238 167 164 178 190 185 179 165 153 150 156 155 154 146 142 138 124 117 118 124 122 116 106 103 108 113 108 103 102 98 77 55 50 54 53 43 55 50 47
267 300 307 283 261 243 195 291 247 249 206 175 189 188 188 189 190 177 173 164 164 161 152 145 147 134 126 122 118 113 117 114 102 101 102 105 106 104 103 105 86 47 51 58 56 46 47 52 47
349 2 299 282 252 225 159 264 266 237 181 194 200 189 186 194 196 189 176 163 159 151 140 145 146 128 121 122 116 110 110 109 106 102 97 98 100 99 93 92 84 53 59 55 68 54 48 42 33
9 316 277 291 253 192 182 252 271 211 175 195 197 189 187 194 204 192 169 165 159 150 143 143 130 123 118 108 100 101 98 99 106 101 95 98 96 99 94 83 65 69 68 56 54 57 71 49 15
255 271 276 264 263 190 219 251 275 230 180 193 193 190 190 196 216 192 164 169 154 143 137 132 131 123 113 98 85 78 83 84 98 104 98 96 99 101 95 87 62 72 81 58 52 65 56 65 357
231 254 277 264 251 217 238 258 272 254 211 191 184 193 202 210 208 176 162 160 141 132 132 132 136 133 125 118 111 102 101 93 95 108 105 95 99 102 100 90 68 71 89 81 73 86 72 38 16
251 272 283 289 264 218 246 269 268 230 219 205 198 205 211 206 198 180 169 156 148 150 157 150 151 140 137 136 132 130 131 136 154 110 100 106 101 102 110 107 103 87 87 75 69 81 93 48 39
270 238 258 265 304 305 306 308 280 249 221 209 202 201 205 202 199 183 170 161 160 165 175 175 165 154 146 133 110 88 68 54 57 90 74 79 104 99 109 115 112 106 106 118 112 120 122 124 359
270 245 242 256 295 279 200 278 281 246 230 223 227 205 202 204 195 178 175 175 180 188 178 167 166 162 159 147 141 139 140 159 211 183 176 173 139 133 132 126 123 117 118 133 144 118 136 146 172
246 274 259 245 198 310 308 200 285 273 234 230 221 207 202 198 196 189 190 188 186 179 171 165 157 162 164 156 154 155 152 162 141 119 144 181 205 190 183 165 154 161 170 176 151 115 135 159 177
261 344 18 42 72 293 239 189 270 233 223 223 212 204 203 198 198 196 195 177 177 169 166 162 157 168 170 165 164 172 174 165 144 153 176 204 225 218 209 197 188 197 195 198 189 175 181 186 184
50 62 23 2 359 265 275 206 250 248 227 209 202 203 204 199 192 191 187 183 183 179 179 174 170 179 178 173 179 186 186 179 185 190 200 207 214 225 230 212 204 212 214 210 193 175 195 194 192
282 132 152 209 249 286 309 245 259 269 253 198 192 189 190 193 195 194 195 193 191 186 182 180 183 186 183 184 193 190 182 183 197 197 200 210 220 226 224 215 209 217 220 213 195 185 209 203 202
144 187 177 151 248 279 281 287 303 264 306 125 159 169 187 195 197 195 192 190 191 189 191 191 191 194 191 192 191 194 194 193 204 202 200 214 225 228 221 218 218 221 221 213 196 200 216 210 212
168 157 105 129 188 278 292 278 256 254 230 211 200 198 202 195 193 193 192 196 200 198 196 189 191 197 196 191 196 203 207 208 212 204 211 226 233 225 217 229 226 229 228 224 206 210 217 213 224
169 170 155 156 174 184 272 274 231 224 220 209 214 212 203 201 200 197 198 198 194 184 180 183 187 188 191 196 199 200 210 214 210 217 224 225 229 225 230 236 236 233 234 232 219 220 220 221 233
192 194 165 174 237 198 217 269 269 237 232 204 210 215 205 200 196 193 188 177 173 178 183 185 190 192 199 196 196 204 207 207 214 231 238 229 231 233 233 235 237 242 240 233 225 227 225 223 232
Height
1519 1520 1521 1523 1527 1533 1531 1526 1520 1518 1517 1515 1514 1514 1515 1517 1520 1524 1520 1519 1520 1523 1525 1527 1529 1530 1531 1532 1532 1533 1534 1535 1535 1536 1536 1537 1537 1537 1538 1538 1538 1538 1539 1539 1539 1539 1539 1540 1540
1518 1520 1522 1523 1529 1537 1531 1523 1520 1516 1515 1514 1514 1514 1514 1515 1516 1516 1517 1519 1520 1522 1524 1526 1528 1529 1530 1531 1532 1533 1533 1534 1535 1536 1536 1537 1537 1537 1538 1538 1538 1538 1538 1539 1539 1539 1539 1539 1539
1518 1519 1521 1524 1529 1530 1526 1519 1516 1514 1514 1514 1514 1514 1514 1515 1515 1515 1516 1518 1520 1522 1524 1525 1527 1529 1530 1531 1531 1532 1533 1534 1534 1535 1536 1536 1537 1537 1537 1538 1538 1538 1538 1538 1539 1539 1539 1539 1539
1518 1520 1521 1526 1526 1522 1519 1516 1514 1514 1514 1514 1514 1514 1515 1516 1515 1515 1515 1518 1519 1521 1523 1524 1526 1528 1529 1530 1531 1532 1532 1533 1534 1534 1535 1536 1536 1537 1537 1537 1537 1537 1538 1538 1538 1538 1538 1538 1538
1518 1519 1524 1527 1523 1519 1516 1515 1514 1514 1514 1513 1514 1514 1514 1515 1514 1514 1515 1517 1518 1519 1521 1524 1525 1527 1528 1529 1530 1531 1532 1533 1533 1534 1534 1535 1536 1536 1536 1537 1537 1537 1537 1537 1537 1537 1537 1537 1537
1518 1519 1527 1528 1522 1517 1515 1514 1514 1513 1512 1513 1513 1513 1513 1514 1513 1513 1515 1516 1518 1519 1521 1523 1525 1526 1527 1528 1529 1530 1531 1532 1533 1533 1534 1534 1535 1535 1535 1536 1536 1536 1536 1536 1536 1536 1536 1536 1536
1519 1522 1524 1523 1521 1518 1515 1514 1513 1513 1512 1512 1512 1513 1512 1513 1513 1513 1514 1516 1517 1519 1520 1522 1523 1525 1526 1527 1528 1529 1530 1531 1532 1532 1533 1533 1534 1534 1534 1535 1535 1535 1535 1535 1535 1535 1535 1535 1535
1517 1521 1522 1522 1519 1517 1513 1512 1512 1511 1511 1511 1511 1511 1511 1512 1512 1512 1513 1514 1516 1517 1519 1520 1521 1523 1524 1526 1527 1528 1529 1530 1531 1531 1532 1532 1533 1533 1533 1534 1534 1534 1534 1534 1534 1534 1534 1534 1534
1517 1523 1523 1518 1516 1514 1512 1511 1510 1510 1509 1509 1509 1509 1509 1510 1510 1511 1511 1512 1514 1516 1517 1519 1520 1521 1522 1524 1525 1526 1528 1529 1529 1530 1531 1531 1531 1532 1532 1532 1533 1533 1533 1533 1533 1533 1533 1533 1533
1517 1522 1517 1513 1512 1511 1510 1510 1509 1508 1508 1507 1507 1507 1507 1507 1508 1508 1508 1509 1510 1513 1515 1517 1518 1520 1521 1522 1524 1525 1526 1527 1528 1528 1529 1530 1530 1531 1531 1531 1531 1532 1532 1532 1532 1532 1532 1532 1532
1515 1516 1512 1511 1510 1510 1509 1508 1508 1507 1507 1505 1505 1505 1505 1505 1506 1506 1507 1507 1508 1510 1513 1515 1517 1519 1519 1521 1522 1523 1524 1525 1526 1527 1528 1528 1529 1529 1530 1530 1530 1530 1531 1531 1531 1531 1531 1531 1531
1514 1512 1510 1509 1508 1508 1507 1507 1506 1505 1504 1503 1504 1504 1504 1504 1504 1504 1505 1506 1507 1509 1511 1513 1515 1517 1518 1519 1520 1521 1523 1524 1525 1525 1526 1527 1527 1528 1528 1529 1529 1529 1529 1530 1530 1529 1530 1530 1530
1512 1510 1508 1507 1507 1507 1506 1505 1505 1503 1502 1502 1502 1502 1502 1503 1503 1503 1504 1505 1507 1509 1510 1512 1513 1515 1517 1518 1519 1520 1521 1522 1523 1524 1524 1525 1526 1526 1527 1527 1527 1528 1528 1528 1528 1528 1528 1528 1529
1510 1509 1507 1506 1505 1505 1505 1503 1503 1500 1500 1500 1501 1501 1502 1502 1502 1502 1503 1503 1505 1507 1509 1510 1512 1514 1515 1516 1517 1518 1520 1521 1522 1522 1523 1523 1524 1525 1525 1526 1526 1526 1526 1527 1527 1527 1527 1527 1527
1509 1510 1507 1505 1504 1504 1504 1504 1500 1497 1498 1499 1499 1500 1501 1501 1502 1501 1502 1502 1504 1506 1507 1508 1510 1512 1514 1515 1516 1517 1518 1519 1520 1521 1521 1521 1522 1523 1524 1524 1525 1525 1525 1525 1526 1526 1526 1525 1525
1510 1511 1511 1505 1503 1502 1507 1505 1497 1497 1497 1497 1498 1498 1499 1500 1501 1501 1502 1502 1503 1504 1505 1507 1509 1510 1512 1514 1515 1515 1516 1517 1518 1519 1519 1520 1521 1521 1522 1523 1523 1524 1524 1524 1524 1524 1524 1524 1523
1513 1515 1511 1506 1502 1502 1504 1502 1495 1495 1495 1495 1496 1497 1497 1498 1499 1500 1501 1501 1502 1503 1505 1506 1506 1508 1510 1512 1513 1514 1515 1515 1516 1517 1517 1518 1519 1520 1521 1521 1521 1522 1522 1522 1522 1522 1522 1522 1522
1515 1514 1510 1508 1502 1502 1502 1499 1494 1494 1494 1494 1494 1495 1496 1496 1497 1499 1500 1501 1502 1503 1504 1504 1506 1507 1509 1510 1511 1512 1513 1514 1515 1515 1516 1516 1517 1518 1519 1519 1520 1520 1520 1520 1520 1520 1520 1520 1520
1510 1510 1509 1504 1500 1501 1500 1497 1493 1492 1492 1492 1493 1493 1494 1495 1496 1498 1499 1500 1500 1501 1502 1503 1504 1505 1507 1508 1509 1511 1511 1512 1513 1513 1514 1514 1515 1516 1517 1517 1518 1518 1518 1518 1518 1518 1518 1518 1518
1508 1509 1507 1502 1499 1500 1499 1496 1492 1491 1490 1490 1491 1491 1492 1494 1495 1496 1497 1498 1498 1500 1502 1502 1503 1504 1505 1507 1509 1509 1510 1511 1511 1512 1512 1513 1513 1514 1515 1515 1516 1516 1516 1516 1516 1516 1516 1516 1516
1507 1507 1505 1503 1500 1499 1499 1497 1492 1489 1488 1489 1489 1490 1491 1491 1493 1493 1494 1495 1497 1499 1500 1501 1503 1503 1505 1506 1508 1508 1509 1509 1509 1510 1510 1511 1511 1512 1513 1514 1514 1514 1514 1514 1514 1514 1514 1514 1514
1507 1501 1501 1501 1504 1506 1502 1506 1493 1488 1488 1487 1487 1488 1489 1490 1490 1491 1493 1494 1496 1498 1499 1501 1502 1503 1504 1505 1506 1506 1507 1507 1508 1508 1508 1509 1510 1511 1511 1512 1512 1512 1512 1512 1512 1512 1512 1513 1512
1503 1499 1500 1499 1502 1505 1504 1506 1497 1489 1488 1486 1485 1486 1487 1489 1490 1490 1492 1494 1495 1497 1498 1500 1501 1501 1503 1503 1504 1505 1506 1506 1506 1506 1506 1508 1508 1509 1509 1510 1510 1510 1510 1510 1510 1510 1510 1510 1510
1500 1500 1500 1503 1506 1507 1502 1505 1498 1491 1485 1482 1482 1484 1486 1488 1489 1490 1492 1493 1495 1496 1497 1498 1499 1500 1501 1501 1502 1503 1504 1504 1505 1504 1505 1505 1506 1507 1507 1507 1508 1508 1508 1508 1507 1507 1508 1508 1508
1501 1507 1513 1512 1514 1508 1501 1502 1495 1482 1479 1478 1479 1481 1483 1486 1487 1489 1490 1491 1493 1494 1495 1496 1497 1498 1498 1499 1500 1501 1502 1503 1503 1503 1503 1503 1504 1504 1505 1505 1505 1505 1505 1505 1504 1504 1505 1505 1505
1503 1506 1515 1516 1515 1510 1502 1500 1488 1478 1476 1475 1476 1478 1481 1483 1485 1487 1488 1489 1490 1491 1493 1494 1495 1496 1497 1497 1498 1499 1500 1500 1501 1501 1502 1502 1502 1502 1502 1502 1502 1502 1502 1502 1501 1501 1502 1502 1502
1503 1507 1507 1514 1515 1514 1504 1495 1483 1477 1476 1476 1476 1478 1479 1481 1483 1484 1486 1487 1488 1490 1491 1491 1493 1494 1495 1495 1496 1497 1497 1498 1499 1499 1499 1499 1499 1499 1499 1499 1499 1499 1498 1498 1498 1497 1498 1498 1498
1501 1503 1511 1512 1512 1510 1503 1498 1491 1478 1477 1476 1476 1476 1477 1478 1480 1482 1483 1485 1487 1488 1489 1490 1490 1491 1492 1493 1494 1494 1495 1496 1496 1496 1496 1496 1496 1496 1496 1495 1495 1495 1495 1495 1494 1494 1494 1494 1494
1502 1503 1505 1511 1512 1512 1507 1496 1478 1475 1473 1474 1473 1473 1474 1476 1478 1479 1481 1482 1484 1485 1486 1487 1488 1488 1489 1490 1491 1492 1492 1493 1493 1493 1493 1493 1493 1493 1493 1492 1492 1491 1491 1491 1490 1490 1490 1490 1490
1496 1498 1502 1507 1508 1511 1511 1496 1472 1472 1470 1470 1471 1472 1473 1474 1476 1477 1478 1480 1481 1482 1483 1484 1485 1486 1487 1487 1488 1489 1489 1490 1490 1490 1489 1490 1489 1489 1489 1489 1488 1487 1487 1487 1487 1486 1486 1486 1486